"Sample Date","Sample Time","Sensor Name","Sample Value","Units","Flow Rate","Sample Interval","Sample Volume","Laser Status","Number Channels","Micron Size 0","Counts/Channel 0","Micron Size 1","Counts/Channel 1","Micron Size 2","Counts/Channel 2","Micron Size 3","Counts/Channel 3","Micron Size 4","Counts/Channel 4","Micron Size 5","Counts/Channel 5","Micron Size 6","Counts/Channel 6","Micron Size 7","Counts/Channel 7","Micron Size 8","Counts/Channel 8","Micron Size 9","Counts/Channel 9","Micron Size 10","Counts/Channel 10","Micron Size 11","Counts/Channel 11","Micron Size 12","Counts/Channel 12","Micron Size 13","Counts/Channel 13","Micron Size 14","Counts/Channel 14","Micron Size 15","Counts/Channel 15","Micron Size 16","Counts/Channel 16","Micron Size 17","Counts/Channel 17","Micron Size 18","Counts/Channel 18","Micron Size 19","Counts/Channel 19","Micron Size 20","Counts/Channel 20","Micron Size 21","Counts/Channel 21","Micron Size 22","Counts/Channel 22","Micron Size 23","Counts/Channel 23","Micron Size 24","Counts/Channel 24","Micron Size 25","Counts/Channel 25","Micron Size 26","Counts/Channel 26","Micron Size 27","Counts/Channel 27","Micron Size 28","Counts/Channel 28","Micron Size 29","Counts/Channel 29","Micron Size 30","Counts/Channel 30","Micron Size 31","Counts/Channel 31"
"07/04/06","08:00:01","AMMA06",62679.000,"cc",28267.760,6.00,2826.776,1,6,0.100,31408.000,0.200,26362.000,0.300,3407.000,0.500,884.000,1.000,617.000,5.000,1.000
"07/04/06","08:00:07","AMMA06",62599.000,"cc",28258.637,6.00,2825.864,1,6,0.100,31463.000,0.200,26128.000,0.300,3486.000,0.500,894.000,1.000,627.000,5.000,1.000
"07/04/06","08:00:13","AMMA06",62345.000,"cc",28435.703,6.00,2843.571,1,6,0.100,31359.000,0.200,26113.000,0.300,3431.000,0.500,847.000,1.000,594.000,5.000,1.000
"07/04/06","08:00:19","AMMA06",62585.000,"cc",28359.379,6.00,2835.938,1,6,0.100,31516.000,0.200,26063.000,0.300,3458.000,0.500,944.000,1.000,604.000,5.000,0
"07/04/06","08:00:25","AMMA06",62098.000,"cc",28253.053,6.00,2825.305,1,6,0.100,31229.000,0.200,25850.000,0.300,3517.000,0.500,932.000,1.000,569.000,5.000,1.000
"07/04/06","08:00:31","AMMA06",62313.000,"cc",28247.914,6.00,2824.792,1,6,0.100,31359.000,0.200,26181.000,0.300,3318.000,0.500,883.000,1.000,571.000,5.000,1.000
"07/04/06","08:00:37","AMMA06",62382.000,"cc",28320.506,6.00,2832.051,1,6,0.100,31545.000,0.200,25929.000,0.300,3425.000,0.500,910.000,1.000,573.000,5.000,0
"07/04/06","08:00:43","AMMA06",62292.000,"cc",28328.318,6.00,2832.832,1,6,0.100,31347.000,0.200,26059.000,0.300,3407.000,0.500,901.000,1.000,577.000,5.000,1.000
"07/04/06","08:00:49","AMMA06",62517.000,"cc",28373.018,6.00,2837.302,1,6,0.100,31545.000,0.200,26000.000,0.300,3406.000,0.500,954.000,1.000,612.000,5.000,0
"07/04/06","08:00:55","AMMA06",61751.000,"cc",28286.832,6.00,2828.683,1,6,0.100,31196.000,0.200,25626.000,0.300,3377.000,0.500,940.000,1.000,610.000,5.000,2.000
"07/04/06","08:01:01","AMMA06",61926.000,"cc",28313.535,6.00,2831.354,1,6,0.100,31397.000,0.200,25742.000,0.300,3349.000,0.500,847.000,1.000,590.000,5.000,1.000
"07/04/06","08:01:07","AMMA06",61395.000,"cc",28358.168,6.00,2835.817,1,6,0.100,31029.000,0.200,25480.000,0.300,3404.000,0.500,859.000,1.000,623.000,5.000,0
"07/04/06","08:01:13","AMMA06",61541.000,"cc",28288.252,6.00,2828.825,1,6,0.100,31006.000,0.200,25534.000,0.300,3508.000,0.500,888.000,1.000,605.000,5.000,0
"07/04/06","08:01:19","AMMA06",62263.000,"cc",28309.945,6.00,2830.995,1,6,0.100,31333.000,0.200,25986.000,0.300,3470.000,0.500,922.000,1.000,552.000,5.000,0
"07/04/06","08:01:25","AMMA06",62159.000,"cc",28337.803,6.00,2833.781,1,6,0.100,31200.000,0.200,25869.000,0.300,3495.000,0.500,942.000,1.000,653.000,5.000,0
"07/04/06","08:01:31","AMMA06",62081.000,"cc",28312.088,6.00,2831.209,1,6,0.100,31336.000,0.200,25793.000,0.300,3474.000,0.500,896.000,1.000,582.000,5.000,0
"07/04/06","08:01:37","AMMA06",62022.000,"cc",28369.693,6.00,2836.970,1,6,0.100,31153.000,0.200,25913.000,0.300,3425.000,0.500,934.000,1.000,597.000,5.000,0
"07/04/06","08:01:43","AMMA06",62332.000,"cc",28342.361,6.00,2834.236,1,6,0.100,31342.000,0.200,25982.000,0.300,3527.000,0.500,924.000,1.000,557.000,5.000,0
"07/04/06","08:01:49","AMMA06",61934.000,"cc",28300.387,6.00,2830.039,1,6,0.100,31150.000,0.200,25739.000,0.300,3524.000,0.500,914.000,1.000,606.000,5.000,1.000
"07/04/06","08:01:55","AMMA06",62372.000,"cc",28301.981,6.00,2830.198,1,6,0.100,31579.000,0.200,25810.000,0.300,3463.000,0.500,948.000,1.000,571.000,5.000,1.000
"07/04/06","08:02:01","AMMA06",62048.000,"cc",28358.295,6.00,2835.830,1,6,0.100,31002.000,0.200,25876.000,0.300,3681.000,0.500,906.000,1.000,582.000,5.000,1.000
"07/04/06","08:02:07","AMMA06",61790.000,"cc",28275.590,6.00,2827.559,1,6,0.100,31068.000,0.200,25841.000,0.300,3379.000,0.500,912.000,1.000,586.000,5.000,4.000
"07/04/06","08:02:13","AMMA06",62024.000,"cc",28305.963,6.00,2830.596,1,6,0.100,31357.000,0.200,25755.000,0.300,3369.000,0.500,935.000,1.000,608.000,5.000,0
"07/04/06","08:02:19","AMMA06",62228.000,"cc",28363.090,6.00,2836.309,1,6,0.100,31379.000,0.200,25870.000,0.300,3524.000,0.500,866.000,1.000,589.000,5.000,0
"07/04/06","08:02:25","AMMA06",62391.000,"cc",28279.481,6.00,2827.948,1,6,0.100,31217.000,0.200,26044.000,0.300,3558.000,0.500,918.000,1.000,653.000,5.000,1.000
"07/04/06","08:02:31","AMMA06",62523.000,"cc",28278.676,6.00,2827.868,1,6,0.100,31517.000,0.200,26134.000,0.300,3458.000,0.500,837.000,1.000,577.000,5.000,0
"07/04/06","08:02:37","AMMA06",62150.000,"cc",28294.482,6.00,2829.449,1,6,0.100,31161.000,0.200,26046.000,0.300,3492.000,0.500,860.000,1.000,590.000,5.000,1.000
"07/04/06","08:02:43","AMMA06",61802.000,"cc",28414.414,6.00,2841.442,1,6,0.100,30922.000,0.200,25930.000,0.300,3442.000,0.500,883.000,1.000,624.000,5.000,1.000
"07/04/06","08:02:49","AMMA06",62171.000,"cc",28282.457,6.00,2828.246,1,6,0.100,31170.000,0.200,26014.000,0.300,3501.000,0.500,887.000,1.000,599.000,5.000,0
"07/04/06","08:02:55","AMMA06",61008.000,"cc",28345.234,6.00,2834.524,1,6,0.100,30856.000,0.200,25192.000,0.300,3508.000,0.500,869.000,1.000,583.000,5.000,0
"07/04/06","08:03:01","AMMA06",61446.000,"cc",28316.934,6.00,2831.694,1,6,0.100,31102.000,0.200,25362.000,0.300,3578.000,0.500,860.000,1.000,544.000,5.000,0
"07/04/06","08:03:07","AMMA06",62093.000,"cc",28328.647,6.00,2832.865,1,6,0.100,31554.000,0.200,25724.000,0.300,3419.000,0.500,856.000,1.000,539.000,5.000,1.000
"07/04/06","08:03:13","AMMA06",61215.000,"cc",28279.330,6.00,2827.933,1,6,0.100,31102.000,0.200,25241.000,0.300,3389.000,0.500,894.000,1.000,589.000,5.000,0
"07/04/06","08:03:19","AMMA06",61397.000,"cc",28304.684,6.00,2830.469,1,6,0.100,31155.000,0.200,25381.000,0.300,3349.000,0.500,898.000,1.000,614.000,5.000,0
"07/04/06","08:03:25","AMMA06",61158.000,"cc",28350.994,6.00,2835.100,1,6,0.100,31307.000,0.200,24850.000,0.300,3515.000,0.500,904.000,1.000,582.000,5.000,0
"07/04/06","08:03:31","AMMA06",60332.000,"cc",28293.731,6.00,2829.373,1,6,0.100,30738.000,0.200,24570.000,0.300,3579.000,0.500,897.000,1.000,547.000,5.000,1.000
"07/04/06","08:03:37","AMMA06",60282.000,"cc",28285.990,6.00,2828.599,1,6,0.100,30908.000,0.200,24135.000,0.300,3716.000,0.500,895.000,1.000,626.000,5.000,2.000
"07/04/06","08:03:43","AMMA06",60569.000,"cc",28318.613,6.00,2831.862,1,6,0.100,30905.000,0.200,24465.000,0.300,3694.000,0.500,918.000,1.000,587.000,5.000,0
"07/04/06","08:03:49","AMMA06",60334.000,"cc",28293.623,6.00,2829.363,1,6,0.100,31024.000,0.200,24202.000,0.300,3680.000,0.500,882.000,1.000,545.000,5.000,1.000
"07/04/06","08:03:55","AMMA06",60707.000,"cc",28334.402,6.00,2833.440,1,6,0.100,31079.000,0.200,24404.000,0.300,3724.000,0.500,920.000,1.000,580.000,5.000,0
"07/04/06","08:04:01","AMMA06",60407.000,"cc",28337.613,6.00,2833.762,1,6,0.100,30990.000,0.200,24300.000,0.300,3575.000,0.500,953.000,1.000,589.000,5.000,0
"07/04/06","08:04:07","AMMA06",60530.000,"cc",28366.902,6.00,2836.690,1,6,0.100,31196.000,0.200,24197.000,0.300,3675.000,0.500,857.000,1.000,603.000,5.000,2.000
"07/04/06","08:04:13","AMMA06",60504.000,"cc",28302.867,6.00,2830.287,1,6,0.100,31183.000,0.200,24159.000,0.300,3659.000,0.500,918.000,1.000,585.000,5.000,0
"07/04/06","08:04:19","AMMA06",60017.000,"cc",28257.660,6.00,2825.766,1,6,0.100,31071.000,0.200,23754.000,0.300,3727.000,0.500,894.000,1.000,571.000,5.000,0
"07/04/06","08:04:25","AMMA06",60519.000,"cc",28384.443,6.00,2838.445,1,6,0.100,31449.000,0.200,23976.000,0.300,3599.000,0.500,901.000,1.000,594.000,5.000,0
"07/04/06","08:04:31","AMMA06",59855.000,"cc",28288.082,6.00,2828.808,1,6,0.100,31108.000,0.200,23736.000,0.300,3544.000,0.500,849.000,1.000,618.000,5.000,0
"07/04/06","08:04:37","AMMA06",60411.000,"cc",28280.375,6.00,2828.038,1,6,0.100,31520.000,0.200,23966.000,0.300,3466.000,0.500,872.000,1.000,586.000,5.000,1.000
"07/04/06","08:04:43","AMMA06",60202.000,"cc",28306.246,6.00,2830.625,1,6,0.100,31411.000,0.200,23754.000,0.300,3551.000,0.500,914.000,1.000,572.000,5.000,0
"07/04/06","08:04:49","AMMA06",60016.000,"cc",28333.680,6.00,2833.368,1,6,0.100,31225.000,0.200,23736.000,0.300,3561.000,0.500,928.000,1.000,566.000,5.000,0
"07/04/06","08:04:55","AMMA06",59509.000,"cc",28303.984,6.00,2830.399,1,6,0.100,31032.000,0.200,23547.000,0.300,3481.000,0.500,903.000,1.000,546.000,5.000,0
"07/04/06","08:05:01","AMMA06",59672.000,"cc",28343.094,6.00,2834.310,1,6,0.100,31123.000,0.200,23632.000,0.300,3465.000,0.500,871.000,1.000,580.000,5.000,1.000
"07/04/06","08:05:07","AMMA06",60340.000,"cc",28310.926,6.00,2831.093,1,6,0.100,31698.000,0.200,23676.000,0.300,3499.000,0.500,903.000,1.000,564.000,5.000,0
"07/04/06","08:05:13","AMMA06",60399.000,"cc",28345.633,6.00,2834.564,1,6,0.100,31256.000,0.200,24013.000,0.300,3625.000,0.500,923.000,1.000,582.000,5.000,0
"07/04/06","08:05:19","AMMA06",60781.000,"cc",28273.885,6.00,2827.389,1,6,0.100,31626.000,0.200,24069.000,0.300,3639.000,0.500,885.000,1.000,562.000,5.000,0
"07/04/06","08:05:25","AMMA06",60484.000,"cc",28321.129,6.00,2832.113,1,6,0.100,31510.000,0.200,23972.000,0.300,3515.000,0.500,930.000,1.000,557.000,5.000,0
"07/04/06","08:05:31","AMMA06",60715.000,"cc",28284.174,6.00,2828.418,1,6,0.100,31406.000,0.200,24400.000,0.300,3419.000,0.500,907.000,1.000,583.000,5.000,0
"07/04/06","08:05:37","AMMA06",60774.000,"cc",28331.295,6.00,2833.130,1,6,0.100,31283.000,0.200,24577.000,0.300,3453.000,0.500,881.000,1.000,580.000,5.000,0
"07/04/06","08:05:43","AMMA06",61192.000,"cc",28334.746,6.00,2833.475,1,6,0.100,31853.000,0.200,24306.000,0.300,3506.000,0.500,942.000,1.000,585.000,5.000,0
"07/04/06","08:05:49","AMMA06",60969.000,"cc",28365.254,6.00,2836.526,1,6,0.100,31690.000,0.200,24421.000,0.300,3427.000,0.500,879.000,1.000,551.000,5.000,1.000
"07/04/06","08:05:55","AMMA06",61145.000,"cc",28321.656,6.00,2832.166,1,6,0.100,31860.000,0.200,24303.000,0.300,3470.000,0.500,917.000,1.000,595.000,5.000,0
"07/04/06","08:06:01","AMMA06",60668.000,"cc",28300.807,6.00,2830.081,1,6,0.100,31395.000,0.200,24283.000,0.300,3489.000,0.500,902.000,1.000,599.000,5.000,0
"07/04/06","08:06:07","AMMA06",61074.000,"cc",28289.086,6.00,2828.909,1,6,0.100,31681.000,0.200,24540.000,0.300,3335.000,0.500,900.000,1.000,618.000,5.000,0
"07/04/06","08:06:13","AMMA06",61383.000,"cc",28364.340,6.00,2836.434,1,6,0.100,31518.000,0.200,24942.000,0.300,3396.000,0.500,913.000,1.000,613.000,5.000,1.000
"07/04/06","08:06:19","AMMA06",61104.000,"cc",28335.387,6.00,2833.539,1,6,0.100,31822.000,0.200,24384.000,0.300,3446.000,0.500,904.000,1.000,548.000,5.000,0
"07/04/06","08:06:25","AMMA06",61323.000,"cc",28310.543,6.00,2831.054,1,6,0.100,31621.000,0.200,24721.000,0.300,3427.000,0.500,975.000,1.000,578.000,5.000,1.000
"07/04/06","08:06:31","AMMA06",60984.000,"cc",28309.510,6.00,2830.951,1,6,0.100,31747.000,0.200,24244.000,0.300,3383.000,0.500,945.000,1.000,665.000,5.000,0
"07/04/06","08:06:37","AMMA06",60517.000,"cc",28295.467,6.00,2829.547,1,6,0.100,31574.000,0.200,24049.000,0.300,3375.000,0.500,915.000,1.000,604.000,5.000,0
"07/04/06","08:06:43","AMMA06",60754.000,"cc",28292.012,6.00,2829.201,1,6,0.100,31400.000,0.200,24446.000,0.300,3428.000,0.500,895.000,1.000,585.000,5.000,0
"07/04/06","08:06:49","AMMA06",60626.000,"cc",28274.365,6.00,2827.437,1,6,0.100,31687.000,0.200,24150.000,0.300,3331.000,0.500,881.000,1.000,576.000,5.000,1.000
"07/04/06","08:06:55","AMMA06",60672.000,"cc",28296.240,6.00,2829.624,1,6,0.100,31384.000,0.200,24481.000,0.300,3316.000,0.500,904.000,1.000,587.000,5.000,0
"07/04/06","08:07:01","AMMA06",61326.000,"cc",28391.059,6.00,2839.106,1,6,0.100,32119.000,0.200,24359.000,0.300,3270.000,0.500,988.000,1.000,590.000,5.000,0
"07/04/06","08:07:07","AMMA06",61139.000,"cc",28296.434,6.00,2829.644,1,6,0.100,31546.000,0.200,24659.000,0.300,3410.000,0.500,930.000,1.000,594.000,5.000,0
"07/04/06","08:07:13","AMMA06",60703.000,"cc",28312.928,6.00,2831.293,1,6,0.100,31452.000,0.200,24391.000,0.300,3410.000,0.500,891.000,1.000,559.000,5.000,0
"07/04/06","08:07:19","AMMA06",59942.000,"cc",28303.432,6.00,2830.343,1,6,0.100,31095.000,0.200,23997.000,0.300,3414.000,0.500,883.000,1.000,553.000,5.000,0
"07/04/06","08:07:25","AMMA06",60104.000,"cc",28368.660,6.00,2836.866,1,6,0.100,31086.000,0.200,24189.000,0.300,3384.000,0.500,884.000,1.000,559.000,5.000,2.000
"07/04/06","08:07:31","AMMA06",60492.000,"cc",28313.690,6.00,2831.369,1,6,0.100,31469.000,0.200,24136.000,0.300,3404.000,0.500,886.000,1.000,596.000,5.000,1.000
"07/04/06","08:07:37","AMMA06",59764.000,"cc",28250.094,6.00,2825.010,1,6,0.100,31021.000,0.200,23795.000,0.300,3444.000,0.500,915.000,1.000,588.000,5.000,1.000
"07/04/06","08:07:43","AMMA06",60211.000,"cc",28369.565,6.00,2836.957,1,6,0.100,31220.000,0.200,24064.000,0.300,3451.000,0.500,909.000,1.000,566.000,5.000,1.000
"07/04/06","08:07:49","AMMA06",60158.000,"cc",28361.287,6.00,2836.129,1,6,0.100,31213.000,0.200,23980.000,0.300,3463.000,0.500,880.000,1.000,622.000,5.000,0
"07/04/06","08:07:55","AMMA06",60112.000,"cc",28259.246,6.00,2825.925,1,6,0.100,31069.000,0.200,24063.000,0.300,3443.000,0.500,930.000,1.000,606.000,5.000,1.000
"07/04/06","08:08:01","AMMA06",60538.000,"cc",28396.059,6.00,2839.606,1,6,0.100,31491.000,0.200,24154.000,0.300,3361.000,0.500,945.000,1.000,587.000,5.000,0
"07/04/06","08:08:07","AMMA06",60401.000,"cc",28307.332,6.00,2830.733,1,6,0.100,31446.000,0.200,24250.000,0.300,3267.000,0.500,862.000,1.000,576.000,5.000,0
"07/04/06","08:08:13","AMMA06",59954.000,"cc",28306.465,6.00,2830.647,1,6,0.100,31322.000,0.200,23920.000,0.300,3289.000,0.500,848.000,1.000,574.000,5.000,1.000
"07/04/06","08:08:19","AMMA06",60228.000,"cc",28365.576,6.00,2836.558,1,6,0.100,31312.000,0.200,24091.000,0.300,3357.000,0.500,896.000,1.000,572.000,5.000,0
"07/04/06","08:08:25","AMMA06",60354.000,"cc",28326.209,6.00,2832.621,1,6,0.100,31486.000,0.200,23978.000,0.300,3368.000,0.500,925.000,1.000,597.000,5.000,0
"07/04/06","08:08:31","AMMA06",60224.000,"cc",28284.840,6.00,2828.484,1,6,0.100,31607.000,0.200,23796.000,0.300,3327.000,0.500,924.000,1.000,569.000,5.000,1.000
"07/04/06","08:08:37","AMMA06",60439.000,"cc",28254.219,6.00,2825.422,1,6,0.100,31820.000,0.200,23775.000,0.300,3342.000,0.500,907.000,1.000,595.000,5.000,0
"07/04/06","08:08:43","AMMA06",60156.000,"cc",28330.977,6.00,2833.098,1,6,0.100,31319.000,0.200,24063.000,0.300,3343.000,0.500,876.000,1.000,554.000,5.000,1.000
"07/04/06","08:08:49","AMMA06",60143.000,"cc",28324.412,6.00,2832.441,1,6,0.100,31445.000,0.200,23903.000,0.300,3284.000,0.500,884.000,1.000,627.000,5.000,0
"07/04/06","08:08:55","AMMA06",60478.000,"cc",28266.611,6.00,2826.661,1,6,0.100,31651.000,0.200,24028.000,0.300,3348.000,0.500,882.000,1.000,568.000,5.000,1.000
"07/04/06","08:09:01","AMMA06",60273.000,"cc",28325.824,6.00,2832.583,1,6,0.100,31200.000,0.200,24307.000,0.300,3369.000,0.500,863.000,1.000,533.000,5.000,1.000
"07/04/06","08:09:07","AMMA06",60194.000,"cc",28337.527,6.00,2833.753,1,6,0.100,31470.000,0.200,23829.000,0.300,3431.000,0.500,879.000,1.000,585.000,5.000,0
"07/04/06","08:09:13","AMMA06",60258.000,"cc",28300.428,6.00,2830.043,1,6,0.100,31425.000,0.200,24049.000,0.300,3325.000,0.500,908.000,1.000,550.000,5.000,1.000
"07/04/06","08:09:19","AMMA06",60280.000,"cc",28302.744,6.00,2830.275,1,6,0.100,31617.000,0.200,23883.000,0.300,3318.000,0.500,873.000,1.000,587.000,5.000,2.000
"07/04/06","08:09:25","AMMA06",60452.000,"cc",28364.754,6.00,2836.476,1,6,0.100,31495.000,0.200,24147.000,0.300,3344.000,0.500,881.000,1.000,585.000,5.000,0
"07/04/06","08:09:31","AMMA06",60579.000,"cc",28304.549,6.00,2830.455,1,6,0.100,31361.000,0.200,24301.000,0.300,3372.000,0.500,909.000,1.000,634.000,5.000,2.000
"07/04/06","08:09:37","AMMA06",60357.000,"cc",28284.031,6.00,2828.403,1,6,0.100,31389.000,0.200,24154.000,0.300,3388.000,0.500,843.000,1.000,583.000,5.000,0
"07/04/06","08:09:43","AMMA06",60468.000,"cc",28314.873,6.00,2831.488,1,6,0.100,31173.000,0.200,24448.000,0.300,3382.000,0.500,870.000,1.000,595.000,5.000,0
"07/04/06","08:09:49","AMMA06",59956.000,"cc",28321.459,6.00,2832.146,1,6,0.100,30791.000,0.200,24255.000,0.300,3463.000,0.500,878.000,1.000,568.000,5.000,1.000
"07/04/06","08:09:55","AMMA06",60077.000,"cc",28238.299,6.00,2823.830,1,6,0.100,30984.000,0.200,23940.000,0.300,3626.000,0.500,912.000,1.000,615.000,5.000,0
"07/04/06","08:10:01","AMMA06",59088.000,"cc",28297.236,6.00,2829.724,1,6,0.100,30525.000,0.200,23611.000,0.300,3490.000,0.500,906.000,1.000,555.000,5.000,1.000
"07/04/06","08:10:07","AMMA06",59824.000,"cc",28354.258,6.00,2835.426,1,6,0.100,30892.000,0.200,23718.000,0.300,3713.000,0.500,924.000,1.000,577.000,5.000,0
"07/04/06","08:10:13","AMMA06",59617.000,"cc",28365.504,6.00,2836.551,1,6,0.100,30587.000,0.200,23905.000,0.300,3694.000,0.500,891.000,1.000,538.000,5.000,2.000
"07/04/06","08:10:19","AMMA06",59366.000,"cc",28356.785,6.00,2835.679,1,6,0.100,30445.000,0.200,23874.000,0.300,3528.000,0.500,918.000,1.000,600.000,5.000,1.000
"07/04/06","08:10:25","AMMA06",59331.000,"cc",28282.381,6.00,2828.238,1,6,0.100,30529.000,0.200,23545.000,0.300,3747.000,0.500,895.000,1.000,615.000,5.000,0
"07/04/06","08:10:31","AMMA06",59727.000,"cc",28286.352,6.00,2828.635,1,6,0.100,30676.000,0.200,23794.000,0.300,3754.000,0.500,944.000,1.000,559.000,5.000,0
"07/04/06","08:10:37","AMMA06",59787.000,"cc",28307.113,6.00,2830.711,1,6,0.100,30609.000,0.200,24016.000,0.300,3687.000,0.500,898.000,1.000,577.000,5.000,0
"07/04/06","08:10:43","AMMA06",59844.000,"cc",28307.772,6.00,2830.777,1,6,0.100,30772.000,0.200,24009.000,0.300,3636.000,0.500,895.000,1.000,532.000,5.000,0
"07/04/06","08:10:49","AMMA06",59604.000,"cc",28392.295,6.00,2839.230,1,6,0.100,30824.000,0.200,23838.000,0.300,3502.000,0.500,864.000,1.000,576.000,5.000,0
"07/04/06","08:10:55","AMMA06",59553.000,"cc",28316.471,6.00,2831.647,1,6,0.100,31015.000,0.200,23542.000,0.300,3535.000,0.500,877.000,1.000,584.000,5.000,0
"07/04/06","08:11:01","AMMA06",59236.000,"cc",28299.125,6.00,2829.913,1,6,0.100,30830.000,0.200,23381.000,0.300,3544.000,0.500,889.000,1.000,589.000,5.000,3.000
"07/04/06","08:11:07","AMMA06",59580.000,"cc",28352.660,6.00,2835.266,1,6,0.100,30949.000,0.200,23667.000,0.300,3514.000,0.500,883.000,1.000,567.000,5.000,0
"07/04/06","08:11:13","AMMA06",58703.000,"cc",28308.297,6.00,2830.830,1,6,0.100,30726.000,0.200,23187.000,0.300,3366.000,0.500,852.000,1.000,572.000,5.000,0
"07/04/06","08:11:19","AMMA06",59230.000,"cc",28339.414,6.00,2833.942,1,6,0.100,31175.000,0.200,23091.000,0.300,3469.000,0.500,905.000,1.000,590.000,5.000,0
"07/04/06","08:11:25","AMMA06",59127.000,"cc",28296.695,6.00,2829.670,1,6,0.100,30955.000,0.200,23391.000,0.300,3424.000,0.500,832.000,1.000,525.000,5.000,0
"07/04/06","08:11:31","AMMA06",58545.000,"cc",28280.684,6.00,2828.069,1,6,0.100,30613.000,0.200,23160.000,0.300,3292.000,0.500,913.000,1.000,567.000,5.000,0
"07/04/06","08:11:37","AMMA06",58392.000,"cc",28314.772,6.00,2831.477,1,6,0.100,30658.000,0.200,22994.000,0.300,3304.000,0.500,888.000,1.000,547.000,5.000,1.000
"07/04/06","08:11:43","AMMA06",58765.000,"cc",28311.104,6.00,2831.111,1,6,0.100,31014.000,0.200,22855.000,0.300,3355.000,0.500,916.000,1.000,625.000,5.000,0
"07/04/06","08:11:49","AMMA06",58943.000,"cc",28325.045,6.00,2832.505,1,6,0.100,31111.000,0.200,23052.000,0.300,3319.000,0.500,889.000,1.000,571.000,5.000,1.000
"07/04/06","08:11:55","AMMA06",58228.000,"cc",28279.990,6.00,2827.999,1,6,0.100,30660.000,0.200,22796.000,0.300,3362.000,0.500,864.000,1.000,545.000,5.000,1.000
"07/04/06","08:12:01","AMMA06",58541.000,"cc",28356.188,6.00,2835.619,1,6,0.100,31028.000,0.200,22679.000,0.300,3378.000,0.500,885.000,1.000,571.000,5.000,0
"07/04/06","08:12:07","AMMA06",58621.000,"cc",28272.994,6.00,2827.300,1,6,0.100,30989.000,0.200,22862.000,0.300,3258.000,0.500,918.000,1.000,593.000,5.000,1.000
"07/04/06","08:12:13","AMMA06",58609.000,"cc",28279.900,6.00,2827.990,1,6,0.100,30968.000,0.200,22834.000,0.300,3347.000,0.500,915.000,1.000,545.000,5.000,0
"07/04/06","08:12:19","AMMA06",58884.000,"cc",28349.879,6.00,2834.988,1,6,0.100,31187.000,0.200,23106.000,0.300,3173.000,0.500,828.000,1.000,589.000,5.000,1.000
"07/04/06","08:12:25","AMMA06",59236.000,"cc",28319.424,6.00,2831.943,1,6,0.100,31293.000,0.200,23343.000,0.300,3177.000,0.500,876.000,1.000,547.000,5.000,0
"07/04/06","08:12:31","AMMA06",59198.000,"cc",28308.598,6.00,2830.860,1,6,0.100,31392.000,0.200,23202.000,0.300,3170.000,0.500,878.000,1.000,556.000,5.000,0
"07/04/06","08:12:37","AMMA06",58918.000,"cc",28313.836,6.00,2831.384,1,6,0.100,31228.000,0.200,22982.000,0.300,3199.000,0.500,915.000,1.000,594.000,5.000,0
"07/04/06","08:12:43","AMMA06",58240.000,"cc",28298.803,6.00,2829.880,1,6,0.100,30960.000,0.200,22622.000,0.300,3247.000,0.500,843.000,1.000,567.000,5.000,1.000
"07/04/06","08:12:49","AMMA06",58980.000,"cc",28383.697,6.00,2838.370,1,6,0.100,31300.000,0.200,23026.000,0.300,3146.000,0.500,938.000,1.000,570.000,5.000,0
"07/04/06","08:12:55","AMMA06",58297.000,"cc",28349.340,6.00,2834.934,1,6,0.100,30884.000,0.200,22788.000,0.300,3242.000,0.500,837.000,1.000,546.000,5.000,0
"07/04/06","08:13:01","AMMA06",58163.000,"cc",28277.176,6.00,2827.718,1,6,0.100,30694.000,0.200,22973.000,0.300,3109.000,0.500,864.000,1.000,522.000,5.000,1.000
"07/04/06","08:13:07","AMMA06",58802.000,"cc",28343.941,6.00,2834.394,1,6,0.100,31093.000,0.200,23106.000,0.300,3225.000,0.500,866.000,1.000,511.000,5.000,1.000
"07/04/06","08:13:13","AMMA06",58528.000,"cc",28259.197,6.00,2825.920,1,6,0.100,30900.000,0.200,22991.000,0.300,3274.000,0.500,812.000,1.000,551.000,5.000,0
"07/04/06","08:13:19","AMMA06",58987.000,"cc",28279.010,6.00,2827.901,1,6,0.100,31252.000,0.200,22999.000,0.300,3338.000,0.500,854.000,1.000,543.000,5.000,1.000
"07/04/06","08:13:25","AMMA06",58777.000,"cc",28341.580,6.00,2834.158,1,6,0.100,31072.000,0.200,23026.000,0.300,3213.000,0.500,910.000,1.000,556.000,5.000,0
"07/04/06","08:13:31","AMMA06",58601.000,"cc",28334.818,6.00,2833.482,1,6,0.100,31211.000,0.200,22647.000,0.300,3299.000,0.500,909.000,1.000,534.000,5.000,1.000
"07/04/06","08:13:37","AMMA06",58451.000,"cc",28371.690,6.00,2837.169,1,6,0.100,30802.000,0.200,23023.000,0.300,3254.000,0.500,849.000,1.000,523.000,5.000,0
"07/04/06","08:13:43","AMMA06",58019.000,"cc",28320.494,6.00,2832.050,1,6,0.100,30747.000,0.200,22777.000,0.300,3080.000,0.500,865.000,1.000,549.000,5.000,1.000
"07/04/06","08:13:49","AMMA06",57963.000,"cc",28315.174,6.00,2831.518,1,6,0.100,30681.000,0.200,22720.000,0.300,3147.000,0.500,857.000,1.000,558.000,5.000,0
"07/04/06","08:13:55","AMMA06",58169.000,"cc",28273.506,6.00,2827.351,1,6,0.100,30741.000,0.200,22760.000,0.300,3187.000,0.500,888.000,1.000,593.000,5.000,0
"07/04/06","08:14:01","AMMA06",57727.000,"cc",28347.670,6.00,2834.767,1,6,0.100,30455.000,0.200,22666.000,0.300,3187.000,0.500,865.000,1.000,551.000,5.000,3.000
"07/04/06","08:14:07","AMMA06",58424.000,"cc",28309.063,6.00,2830.907,1,6,0.100,31090.000,0.200,22651.000,0.300,3278.000,0.500,835.000,1.000,569.000,5.000,1.000